DW7000 Weather Reports


time (UTC)temp
C
wind
direction
speed
KPH
gust
KPH
rain 1hr
cm
rain 24hr
cm
rain mn
cm
humidity
%
barometer
mb
20260906051547 25 290 0.0 1.6 0.00 0.00 0.00 79 1008.7
20260906050058 25 332 0.0 6.4 0.00 0.00 0.00 78 1008.7
20260906044546 25 309 0.0 11.3 0.00 0.00 0.00 77 1008.6
20260906043044 25 349 0.0 8.0 0.00 0.00 0.00 79 1008.7
20260906041545 25 8 0.0 9.7 0.00 0.00 0.00 79 1008.7
20260906040042 24 359 0.0 6.4 0.00 0.00 0.00 80 1008.9
20260906034541 24 15 0.0 1.6 0.00 0.00 0.00 80 1009.2
20260906033040 25 309 0.0 3.2 0.00 0.00 0.00 79 1009.3
20260906031604 25 34 0.0 14.5 0.00 0.00 0.00 78 1009.2
20260906030039 25 303 0.0 14.5 0.00 0.00 0.00 78 1008.9
20260906024542 25 290 3.2 17.7 0.00 0.00 0.00 78 1008.9
20260906023043 25 38 1.6 9.7 0.00 0.00 0.00 77 1008.9
20260906021534 25 53 0.0 9.7 0.00 0.00 0.00 76 1008.8
20260906020044 25 330 0.0 4.8 0.00 0.00 0.00 76 1008.7
20260906014533 25 11 0.0 1.6 0.00 0.00 0.00 75 1008.6
20260906013034 25 15 0.0 3.2 0.00 0.00 0.00 74 1008.8
20260906011532 25 343 0.0 1.6 0.00 0.00 0.00 73 1008.8
20260906010033 26 13 0.0 1.6 0.00 0.00 0.00 72 1008.6
20260906004531 25 47 0.0 4.8 0.00 0.00 0.00 72 1008.3
20260906003029 25 358 0.0 0.0 0.00 0.00 0.00 73 1008.2
20260906001539 25 1 0.0 3.2 0.00 0.00 0.00 73 1008.0
20260906000029 26 30 0.0 6.4 0.00 0.00 0.00 73 1007.7
20260905234531 25 291 0.0 3.2 0.00 0.00 0.00 72 1007.5
20260905233027 26 344 0.0 0.0 0.00 0.00 0.00 70 1007.7
20260905231534 27 333 0.0 0.0 0.00 0.00 0.00 68 1007.7
20260905230026 26 318 0.0 0.0 0.00 0.00 0.00 67 1007.7
20260905224526 26 314 0.0 1.6 0.00 0.00 0.00 69 1007.6
20260905223024 26 277 0.0 1.6 0.00 0.00 0.00 71 1007.5
20260905221524 27 301 0.0 0.0 0.00 0.00 0.00 67 1007.7
20260905220023 27 277 0.0 0.0 0.00 0.00 0.00 65 1007.5
20260905214521 25 340 0.0 0.0 0.00 0.00 0.00 71 1007.6
20260905213020 25 312 0.0 0.0 0.00 0.00 0.00 76 1007.8
20260905211517 25 332 0.0 6.4 0.00 0.00 0.00 72 1008.0
20260905210017 25 25 0.0 0.0 0.00 0.00 0.00 74 1008.2
20260905204518 25 65 0.0 1.6 0.00 0.00 0.00 72 1008.1
20260905203015 25 5 0.0 9.7 0.00 0.00 0.00 71 1008.2
20260905201513 25 348 0.0 8.0 0.00 0.00 0.00 69 1008.4
20260905200012 25 4 0.0 1.6 0.00 0.00 0.00 72 1008.5
20260905194512 25 323 0.0 0.0 0.00 0.00 0.00 72 1008.8
20260905193011 25 138 0.0 0.0 0.00 0.00 0.00 71 1009.0
20260905191510 24 328 0.0 9.7 0.00 0.00 0.00 71 1008.7
20260905190021 24 307 0.0 22.5 0.00 0.00 0.00 70 1009.1
20260905184510 25 321 4.8 29.0 0.00 0.00 0.00 74 1009.4
20260905183012 25 357 0.0 8.0 0.00 0.00 0.00 77 1008.7
20260905181507 26 49 0.0 1.6 0.00 0.00 0.00 76 1008.9
20260905180008 29 51 0.0 0.0 0.00 0.00 0.00 64 1008.8
20260905174506 30 212 0.0 0.0 0.00 0.00 0.00 60 1008.9
20260905173003 31 277 0.0 6.4 0.00 0.00 0.00 60 1009.0
20260905171502 32 263 0.0 9.7 0.00 0.00 0.00 57 1009.1
20260905170104 31 208 0.0 1.6 0.00 0.00 0.00 62 1009.3
20260905164603 30 321 0.0 3.2 0.00 0.00 0.00 62 1009.6
20260905163057 30 317 0.0 0.0 0.00 0.00 0.00 64 1009.9
20260905161558 30 348 0.0 1.6 0.00 0.00 0.00 65 1010.1
20260905160100 30 307 0.0 6.4 0.00 0.00 0.00 65 1010.1
20260905154601 30 308 0.0 3.2 0.00 0.00 0.00 63 1010.1
20260905153053 30 221 0.0 0.0 0.00 0.00 0.00 65 1010.1
20260905151550 29 242 0.0 0.0 0.00 0.00 0.00 67 1010.2
20260905150047 29 205 0.0 0.0 0.00 0.00 0.00 68 1010.2
20260905144544 28 270 0.0 1.6 0.00 0.00 0.00 70 1010.2
20260905143041 27 333 0.0 1.6 0.00 0.00 0.00 71 1010.3
20260905141537 27 37 0.0 6.4 0.00 0.00 0.00 72 1010.3
20260905140036 26 288 0.0 3.2 0.00 0.00 0.00 74 1010.3
20260905134534 26 316 0.0 4.8 0.00 0.00 0.00 76 1010.4
20260905133034 25 304 0.0 3.2 0.00 0.00 0.00 77 1010.4
20260905131532 25 214 0.0 4.8 0.00 0.00 0.00 78 1010.5
20260905130032 25 314 0.0 3.2 0.00 0.00 0.00 79 1010.4
20260905124532 24 335 0.0 3.2 0.00 0.00 0.00 79 1010.4
20260905123030 24 287 0.0 3.2 0.00 0.00 0.00 79 1010.2
20260905121529 24 298 0.0 3.2 0.00 0.00 0.00 79 1010.2
20260905120040 25 51 0.0 1.6 0.00 0.00 0.00 78 1010.2
20260905114528 25 345 0.0 1.6 0.00 0.00 0.00 77 1010.0
20260905113030 25 330 0.0 0.0 0.00 0.00 0.00 77 1009.8
20260905111551 25 345 0.0 6.4 0.00 0.00 0.00 77 1009.6
20260905110026 25 32 0.0 6.4 0.00 0.00 0.00 77 1009.3
20260905104525 25 8 0.0 6.4 0.00 0.00 0.00 77 1009.1
20260905103028 25 29 0.0 4.8 0.00 0.00 0.00 76 1009.1
20260905101523 25 314 0.0 9.7 0.00 0.00 0.00 76 1009.1
20260905100023 25 326 0.0 9.7 0.00 0.00 0.00 75 1009.0
20260905094522 25 325 0.0 8.0 0.00 0.00 0.00 75 1008.9
20260905093021 25 40 0.0 4.8 0.00 0.00 0.00 75 1008.9
20260905091524 25 314 0.0 8.0 0.00 0.00 0.00 75 1008.9
20260905090020 25 342 1.6 9.7 0.00 0.00 0.00 75 1008.9
20260905084518 25 25 0.0 9.7 0.00 0.00 0.00 76 1009.0
20260905083016 25 283 0.0 9.7 0.00 0.00 0.00 78 1009.2
20260905081514 25 30 1.6 9.7 0.00 0.00 0.00 78 1009.3
20260905080015 25 38 0.0 9.7 0.00 0.00 0.00 77 1009.6
20260905074513 25 354 0.0 6.4 0.00 0.00 0.00 75 1009.7
20260905073008 25 11 0.0 8.0 0.00 0.00 0.00 74 1009.8
20260905071506 25 15 0.0 1.6 0.00 0.00 0.00 71 1010.0
20260905070011 26 354 0.0 1.6 0.00 0.00 0.00 72 1010.2
20260905064511 26 126 0.0 0.0 0.00 0.00 0.00 72 1010.3
20260905063002 26 145 0.0 0.0 0.00 0.00 0.00 73 1010.4
20260905061600 26 181 0.0 0.0 0.00 0.00 0.00 73 1010.5
20260905060059 26 181 0.0 0.0 0.00 0.00 0.00 73 1010.6
20260905054558 26 256 0.0 0.0 0.00 0.00 0.00 72 1010.8
20260905053100 26 275 0.0 0.0 0.00 0.00 0.00 72 1010.9